Showing default

TIANHUI 5D, 60212

Orbit data source: Space-Track

TIANHUI 5D, 60212 is a payload satellite owned by G. Cehui dili (CN) in SSO that was launched on Thu, 04 Jul 2024 UTC via a CHANG ZHENG 6A launch vehicle from the Taiyaun Space Center, China (TSC). Payload-class satellites include a variety of spacecraft equipped with specific instruments for various scientific and technological missions. These include communications satellites like Starlink; space stations such as the ISS; scientific satellites like the Hubble; Earth observation satellites from companies like Planet Labs, Umbra, and HawkEye 360; GPS; miniature CubeSats for education and research; and military/defense satellites.

Loading next visibility...
Identifier
60212, 2024-126B
Orbit
SSO
Last TLE update
1 day ago
Origin
Manufacturer
DFH
Mission
Operational spacecraft
Bus & Motor
CAST-2000?, Unknown motor
Mass
~1,000 kg wet, ~1,000 kg dry
Launch date (UTC)
2024-07-04 (10 months ago)
Launch vehicle
CHANG ZHENG 6A
Launch site
Taiyaun Space Center, China (TSC)
Object type
Payload
Rocket body
Debris
Shape & HBR
Unknown
Radar Cross Section
Large (>1 m²)

Expand to show TLE details & history

TLE from 1 day ago
0 TIANHUI 5D
1 60212U 24126B   25128.57032637  .00000685  00000-0  81384-4 0  9994
2 60212  97.8210 136.9324 0002165  96.4724 263.6739 14.87585678 45749
Epoch: 2025-05-08T13:41Z
Definitive object data (Epoch: 2025-05-08T13:41:16.198Z)
Latitude
-0°
Longitude
64.97598°
Altitude
608.683 km
Speed
7.555 km/s
True Right ascension
09h 07m 43s
True Declination
0° 00' 00"
Sunlit
Object was in daylight at TLE epoch
Visualization TLE readout
Latitude
14.30361°
Longitude
-111.93689°
Altitude
607.329 km
Speed
7.557 km/s
Apparent Right ascension
18h 14m 57s
Apparent Declination
-25° 36' 20"
Sunlit
Object is in daylight
Visualization observer readout
Local Sidereal Time
00:25:58
Azimuth
251.371° W
Elevation
-18.093°
Doppler factor
1
Orbital elements
Apogee altitude
604.02 km
Perigee altitude
600.998 km
Semi-major axis
6,980.646 km
Eccentricity
0.0002165
Inclination
97.821°
RAAN
136.9324°
Arg. of periapsis
96.4724°
True anomaly
263.64924°
Mean anomaly
263.6739°
Eccentric anomaly
263.66157°
Mean motion
3.72134 °/min
BSTAR
0.000081384
Orbital period
96.74 mins
Loading maneuver chart data...
Loading SW <> Apogee altitude chart data...
Loading historical data...
Loading historical data...
Loading historical data...
Loading historical data...
Loading historical data...
Loading historical data...
Loading historical data...
Other satellites on launch #126 in the year 2024 (2024-07-04 UTC)

TIANHUI 5D Visibility forecast

Observer location: undefined°, undefined°

Span
Click to sort rows by Start time (UTC) header in descending order
Start Az.
Max El. time (UTC)
Max El. Az.
Max El.
End time (UTC)
End Az.
6 mins2025-05-09 23:43:31.840Z123.812° SE2025-05-09 23:46:31.840Z77.82° E22.964°2025-05-09 23:49:31.840Z21.228° NNE
5 mins2025-05-10 01:20:31.840Z222.737° SW2025-05-10 01:22:31.840Z261.962° W23.169°2025-05-10 01:25:31.840Z315.462° NNW
6 mins2025-05-10 13:05:31.840Z32.028° NE2025-05-10 13:07:31.840Z77.011° E37.241°2025-05-10 13:11:31.840Z174.897° S
|